Lid_Strength_Index
3 3 3 4 3 2 3 3 3 3 3 2 3 3 3 4 4 5 8 6 4 1 1 4 5 6 7 8 8 8 9 11 10 9 7 6 7 5 4 5 5 4 5 4 2
2 3 3 3 3 3 3 2 2 2 2 2 3 3 4 4 5 7 3 2 1 -1 6 7 7 7 9 9 9 9 10 11 9 7 7 5 6 6 6 6 6 5 4 3 2
3 3 2 3 3 2 2 2 2 2 2 3 3 3 4 3 7 8 -1 0 -1 2 6 6 7 8 9 10 10 10 10 9 9 8 7 7 6 5 7 7 5 5 5 4 3
3 3 2 2 2 2 2 2 2 2 3 3 3 3 3 4 10 7 -2 -1 -2 3 6 7 8 9 10 10 10 11 9 9 9 8 8 9 7 6 5 5 4 3 3 4 4
3 3 3 3 3 2 3 3 3 3 3 3 3 3 4 8 7 1 -1 -1 1 5 6 7 8 9 10 10 10 10 9 9 9 9 9 8 8 7 5 4 3 4 4 4 4
3 3 3 3 3 3 3 3 3 3 3 3 3 3 5 9 5 -0 0 2 4 5 6 7 8 8 9 9 10 9 9 9 9 9 9 10 8 5 5 4 4 4 4 4 4
3 4 3 3 3 3 3 3 3 3 3 2 2 3 7 7 3 2 2 4 4 5 7 7 7 7 8 9 8 10 10 9 9 9 10 7 8 8 5 4 5 5 4 4 4
3 3 3 3 3 3 3 3 3 3 3 2 2 3 6 3 3 2 2 3 1 4 4 5 6 7 7 8 9 10 11 11 10 10 6 7 10 7 6 6 6 6 5 5 4
4 4 3 3 3 3 3 3 3 3 2 2 3 4 5 1 3 1 1 3 3 2 2 5 6 8 8 9 10 10 11 12 11 9 7 7 9 7 6 6 7 6 5 5 4
3 3 2 2 2 3 4 3 2 2 2 2 2 5 3 4 2 2 1 3 5 4 5 6 6 7 8 8 11 11 11 10 10 8 7 8 10 8 6 6 7 6 6 5 5
3 3 2 2 2 3 4 6 4 4 3 5 5 5 5 3 1 3 3 4 5 5 7 7 8 9 9 9 10 10 10 10 9 7 9 10 10 9 7 6 7 6 6 6 5
3 3 2 3 3 4 5 4 4 4 6 5 5 5 4 3 4 3 4 5 6 8 7 9 11 9 9 8 9 9 10 9 8 8 9 10 10 8 7 7 7 6 6 6 5
3 3 3 3 3 4 5 4 4 4 6 6 5 4 4 3 6 5 5 6 7 8 8 9 10 9 10 10 11 9 10 10 10 9 8 9 11 10 7 7 6 5 5 5 5
3 3 3 3 5 4 5 4 4 4 8 7 7 6 6 4 7 5 5 6 7 10 9 10 10 10 10 11 10 11 9 10 10 9 11 8 13 11 9 8 8 7 6 5 5
3 3 3 3 5 4 4 3 4 3 15 7 7 4 5 6 7 6 5 5 7 8 8 11 10 10 10 10 9 10 8 9 9 9 11 11 12 12 9 9 9 8 6 5 5
3 3 3 3 4 3 3 3 3 9 15 10 8 9 8 7 7 7 7 5 6 8 8 9 8 8 8 8 8 8 9 9 9 9 13 12 12 14 11 10 8 7 7 6 6
4 4 4 3 4 5 3 3 10 13 8 11 10 9 10 10 8 8 9 9 9 10 11 10 10 8 7 9 8 8 10 12 13 14 14 11 12 13 9 8 8 7 6 5 5
4 4 4 3 4 4 2 6 13 10 11 10 9 10 11 9 8 8 8 9 9 9 10 11 12 9 7 8 10 9 9 12 17 14 13 11 14 12 8 7 6 6 5 6 6
5 4 3 3 3 3 4 10 11 10 10 10 10 9 9 9 9 8 9 9 9 8 10 11 12 8 8 7 8 9 10 9 13 13 14 12 13 9 8 8 7 6 6 5 5
3 2 2 2 2 3 6 10 8 8 8 8 10 9 10 10 10 9 9 8 8 8 7 9 12 10 8 7 7 8 8 11 11 15 16 13 14 11 11 10 8 7 7 6 5
2 4 3 2 2 4 8 8 7 7 7 9 10 9 9 10 9 9 9 8 7 8 7 8 10 11 8 9 10 9 10 10 10 13 14 14 12 9 10 9 8 7 6 6 5
4 6 4 4 6 7 8 7 8 8 7 8 8 9 8 8 9 9 9 8 6 6 8 8 9 11 11 8 7 8 9 10 13 14 12 13 12 8 8 7 7 7 6 5 5
5 5 2 4 9 8 8 8 8 9 8 8 8 8 7 8 9 8 8 6 6 6 7 7 10 12 13 10 8 10 9 9 10 11 12 13 11 8 7 7 6 6 6 6 5
4 7 4 6 6 7 8 9 9 7 8 8 8 7 8 8 7 8 8 6 6 6 5 5 9 10 13 13 10 11 10 9 10 13 12 11 10 8 8 8 6 6 5 5 5
5 7 7 8 7 7 8 9 9 9 7 7 8 7 7 9 8 9 7 7 6 6 6 7 11 10 9 10 9 10 10 10 11 10 12 10 10 8 7 6 6 5 5 5 5
7 7 6 7 7 7 8 8 9 8 8 8 7 6 7 8 8 9 7 7 8 7 7 7 10 10 11 9 9 11 10 10 10 10 10 10 10 6 5 5 6 6 6 6 5
8 6 5 8 7 8 7 8 7 7 6 6 6 7 8 7 6 5 5 5 6 7 8 9 10 11 12 10 11 13 10 10 9 9 9 11 8 6 7 7 6 5 5 5 5